FDX23 KLAX-KMIA

Flight info

Callsign FDX23
Flight time N/A
Altitude 35000
Route DOTSS2 CNERY BLH SALOM EWM CRGER IAH J86 LEV BACCA Y290 GAWKS FROGZ4
Aircraft B77L/H-SDE1E2E3FGHIJ2J3J4J5M1RWXY/LB1D1

Departure

Time 2026-04-22 20:24
Airport Los Angeles International Airport (KLAX)

Arrival

Time N/A
Airport Miami International Airport (KMIA)
Time Latitude Longitude Altitude Speed Heading
2026-04-22 20:06 33.93390 -118.38978 125 ft 0 kts 180°
2026-04-22 20:17 33.93400 -118.38978 125 ft 3 kts 180°
2026-04-22 20:17 33.93418 -118.38978 127 ft 3 kts 180°
2026-04-22 20:18 33.93436 -118.38978 128 ft 3 kts 180°
2026-04-22 20:18 33.93454 -118.38978 124 ft 3 kts 180°
2026-04-22 20:18 33.93472 -118.38978 125 ft 3 kts 180°
2026-04-22 20:18 33.93490 -118.38979 127 ft 3 kts 180°
2026-04-22 20:19 33.93508 -118.38979 126 ft 3 kts 157°
2026-04-22 20:19 33.93523 -118.38992 127 ft 3 kts 116°
2026-04-22 20:19 33.93527 -118.39007 124 ft 0 kts 89°
2026-04-22 20:20 33.93529 -118.38997 126 ft 5 kts 81°
2026-04-22 20:21 33.93544 -118.38897 127 ft 19 kts 78°
2026-04-22 20:21 33.93566 -118.38752 127 ft 17 kts 83°
2026-04-22 20:21 33.93579 -118.38610 126 ft 17 kts 83°
2026-04-22 20:21 33.93594 -118.38468 125 ft 17 kts 82°
2026-04-22 20:22 33.93610 -118.38333 125 ft 14 kts 80°
2026-04-22 20:22 33.93630 -118.38292 127 ft 0 kts 39°
2026-04-22 20:23 33.93676 -118.38284 124 ft 17 kts 353°
2026-04-22 20:23 33.93713 -118.38511 127 ft 61 kts 263°
2026-04-22 20:23 33.93617 -118.39421 130 ft 157 kts 263°
2026-04-22 20:24 33.93461 -118.40978 461 ft 203 kts 262°
2026-04-22 20:24 33.93287 -118.42719 1468 ft 209 kts 261°
2026-04-22 20:24 33.93117 -118.44383 2388 ft 206 kts 263°
2026-04-22 20:24 33.92743 -118.46066 2829 ft 219 kts 239°
2026-04-22 20:25 33.91759 -118.47588 3024 ft 240 kts 231°
2026-04-22 20:25 33.90644 -118.49211 3528 ft 253 kts 233°
2026-04-22 20:25 33.89544 -118.50905 4299 ft 256 kts 234°
2026-04-22 20:25 33.88456 -118.52584 5114 ft 261 kts 235°
2026-04-22 20:26 33.87315 -118.54303 5868 ft 265 kts 233°
2026-04-22 20:26 33.85893 -118.55746 6531 ft 277 kts 207°
2026-04-22 20:26 33.83979 -118.56115 7253 ft 287 kts 174°
2026-04-22 20:26 33.82032 -118.55546 7882 ft 291 kts 167°
2026-04-22 20:27 33.80061 -118.54899 8538 ft 296 kts 169°
2026-04-22 20:27 33.78055 -118.54320 9299 ft 298 kts 171°
2026-04-22 20:27 33.76026 -118.53770 10082 ft 300 kts 171°
2026-04-22 20:27 33.73970 -118.53220 10682 ft 308 kts 172°
2026-04-22 20:28 33.71801 -118.52603 10874 ft 332 kts 166°
2026-04-22 20:28 33.69661 -118.51288 11042 ft 364 kts 142°
2026-04-22 20:28 33.68024 -118.48835 11221 ft 392 kts 116°
2026-04-22 20:28 33.67280 -118.45645 11631 ft 402 kts 98°
2026-04-22 20:29 33.66821 -118.42295 11886 ft 410 kts 102°
2026-04-22 20:29 33.66029 -118.38977 12431 ft 415 kts 110°
2026-04-22 20:29 33.65060 -118.35708 13122 ft 416 kts 110°
2026-04-22 20:29 33.64179 -118.32378 13446 ft 423 kts 104°
2026-04-22 20:30 33.63856 -118.28832 13928 ft 432 kts 87°
2026-04-22 20:30 33.64133 -118.25240 14640 ft 431 kts 82°
2026-04-22 20:30 33.64496 -118.21657 14980 ft 435 kts 83°
2026-04-22 20:30 33.64722 -118.18001 15218 ft 442 kts 88°
2026-04-22 20:31 33.64724 -118.14292 15542 ft 448 kts 91°
2026-04-22 20:31 33.64624 -118.10580 16238 ft 453 kts 92°
2026-04-22 20:31 33.64521 -118.06787 16973 ft 457 kts 91°
2026-04-22 20:31 33.64454 -118.02965 17677 ft 461 kts 91°
2026-04-22 20:32 33.64427 -117.99091 18302 ft 467 kts 90°
2026-04-22 20:32 33.64427 -117.95166 18860 ft 474 kts 90°
2026-04-22 20:32 33.64436 -117.91188 19438 ft 478 kts 90°
2026-04-22 20:32 33.64437 -117.87184 20063 ft 481 kts 91°
2026-04-22 20:33 33.64409 -117.83172 20607 ft 479 kts 93°
2026-04-22 20:33 33.64162 -117.79166 20779 ft 482 kts 99°
2026-04-22 20:33 33.63498 -117.75205 20875 ft 487 kts 109°
2026-04-22 20:33 33.62400 -117.71430 21532 ft 483 kts 115°
2026-04-22 20:34 33.61180 -117.67687 21993 ft 480 kts 115°
2026-04-22 20:34 33.60053 -117.63893 22088 ft 487 kts 111°
2026-04-22 20:34 33.59126 -117.59952 22259 ft 496 kts 107°
2026-04-22 20:34 33.58320 -117.55908 22900 ft 498 kts 106°
2026-04-22 20:35 33.57505 -117.51861 23570 ft 500 kts 107°
2026-04-22 20:35 33.56619 -117.47823 24075 ft 503 kts 109°
2026-04-22 20:35 33.55649 -117.43779 24492 ft 507 kts 110°
2026-04-22 20:35 33.54615 -117.39709 24921 ft 512 kts 110°
2026-04-22 20:36 33.53558 -117.35616 25343 ft 516 kts 110°
2026-04-22 20:36 33.52506 -117.31482 25796 ft 520 kts 110°
2026-04-22 20:36 33.51483 -117.27308 26236 ft 524 kts 108°
2026-04-22 20:36 33.50619 -117.23075 26475 ft 523 kts 104°
2026-04-22 20:37 33.50086 -117.18741 26474 ft 530 kts 95°
2026-04-22 20:37 33.50118 -117.14289 26738 ft 539 kts 87°
2026-04-22 20:37 33.50404 -117.09810 27171 ft 536 kts 85°
2026-04-22 20:37 33.50669 -117.05364 27329 ft 534 kts 88°
2026-04-22 20:38 33.50711 -117.00912 27343 ft 538 kts 92°
2026-04-22 20:38 33.50523 -116.96446 27580 ft 545 kts 95°
2026-04-22 20:38 33.50256 -116.91906 28037 ft 547 kts 95°
2026-04-22 20:38 33.50016 -116.87354 28521 ft 549 kts 94°
2026-04-22 20:39 33.49845 -116.82766 28938 ft 552 kts 92°
2026-04-22 20:39 33.49740 -116.78140 29273 ft 557 kts 91°
2026-04-22 20:39 33.49682 -116.73485 29584 ft 561 kts 91°
2026-04-22 20:39 33.49642 -116.68793 29982 ft 563 kts 91°
2026-04-22 20:40 33.49596 -116.64113 30453 ft 562 kts 91°
2026-04-22 20:40 33.49534 -116.59428 30818 ft 563 kts 91°
2026-04-22 20:40 33.49454 -116.54720 31032 ft 568 kts 92°
2026-04-22 20:40 33.49360 -116.49982 31337 ft 569 kts 92°
2026-04-22 20:41 33.49267 -116.45235 31686 ft 571 kts 92°
2026-04-22 20:41 33.49178 -116.40478 32017 ft 572 kts 92°
2026-04-22 20:41 33.49100 -116.35707 32326 ft 574 kts 91°
2026-04-22 20:41 33.49032 -116.30920 32655 ft 575 kts 91°
2026-04-22 20:42 33.48970 -116.26122 32973 ft 576 kts 91°
2026-04-22 20:42 33.48829 -116.16520 33047 ft 579 kts 92°
2026-04-22 20:43 33.48819 -116.06884 33097 ft 580 kts 87°
2026-04-22 20:43 33.49978 -115.97403 33213 ft 578 kts 69°
2026-04-22 20:43 33.51457 -115.92956 33495 ft 570 kts 61°
2026-04-22 20:44 33.53107 -115.88666 33661 ft 566 kts 62°
2026-04-22 20:44 33.55831 -115.79732 33725 ft 577 kts 71°
2026-04-22 20:44 33.56952 -115.75103 34009 ft 579 kts 70°
2026-04-22 20:45 33.58148 -115.70521 34575 ft 571 kts 68°
2026-04-22 20:45 33.59432 -115.66017 34843 ft 573 kts 68°
2026-04-22 20:45 33.60638 -115.61447 34942 ft 577 kts 71°
2026-04-22 20:46 33.61749 -115.47177 35031 ft 580 kts 98°
2026-04-22 20:46 33.60909 -115.37692 35021 ft 572 kts 94°
2026-04-22 20:47 33.60808 -115.22693 35040 ft 583 kts 90°
2026-04-22 20:47 33.60297 -114.99352 35012 ft 579 kts 93°
2026-04-22 20:48 33.59991 -114.89756 35045 ft 573 kts 92°
2026-04-22 20:48 33.59721 -114.80169 35048 ft 575 kts 92°
2026-04-22 20:49 33.59257 -114.70605 35044 ft 575 kts 97°
2026-04-22 20:49 33.58312 -114.61077 35049 ft 576 kts 98°